Tracking 28790 objects as of 19-Apr-2024
HD Live streaming from Space Station
objects crossing your sky now

COSMOS 2251 DEB

Track COSMOS 2251 DEB now!
10-day predictions


NORAD ID: 39586
Int'l Code: 1993-036BUR
Perigee: 761.2 km
Apogee: 911.2 km
Inclination: 74.0 °
Period: 101.5 minutes
Semi major axis: 7207 km
RCS: 0.0028 m2 (small)
Launch date: June 16, 1993
Source: Commonwealth of Independent States (former USSR) (CIS)
Launch site: PLESETSK MISSILE AND SPACE COMPLEX (PKMTR)

Note: This is SATELLITE DEBRIS
Your satellite tracking list
Your tracking list is empty




NASA's NSSDC Master Catalog

Two Line Element Set (TLE):
1 39586U 93036BUR 24103.12902047  .00001510  00000-0  69796-3 0  9994
2 39586  74.0101 240.8704 0104061 156.4941  18.9684 14.18909598523171
Source of the keplerian elements: AFSPC